Location: ???????
(54.9996°N, 37.9529°E)
Time: 04:01:38
(UTC+00:00)

Lacrosse 4 Rocket - Visible Passes

Search period start: 08 December 2025 00:00
Search period end: 18 December 2025 00:00
Orbit: 513 x 567 km, 68.0° (Epoch: 07 December)

Date Brightness Start Highest point End Pass type
(mag) Time Alt. Az. Time Alt. Az. Time Alt. Az.
08 Dec 1.7 13:47:35 10° SSW 13:51:31 50° ESE 13:55:25 10° NE visible
08 Dec 2.6 15:25:50 10° WSW 15:29:32 33° NW 15:31:10 24° N visible
08 Dec 4.3 17:06:11 10° NW 17:06:40 11° NW 17:06:40 11° NW visible
09 Dec 2.8 15:18:05 10° W 15:21:42 30° NW 15:23:35 21° N visible
09 Dec 4.2 16:58:31 10° NW 16:59:04 12° NW 16:59:04 12° NW visible
10 Dec 2.9 15:10:21 10° W 15:13:52 28° NW 15:15:57 18° NNE visible
10 Dec 4.2 16:50:50 10° NW 16:51:27 12° NNW 16:51:27 12° NNW visible
11 Dec 3.0 15:02:36 10° W 15:06:02 26° NNW 15:08:18 16° NNE visible
11 Dec 4.1 16:43:07 10° NW 16:43:47 12° NNW 16:43:47 12° NNW visible
12 Dec 3.0 14:54:52 10° W 14:58:11 24° NNW 15:00:37 14° NNE visible
12 Dec 4.0 16:35:23 10° NW 16:36:06 12° NNW 16:36:06 12° NNW visible
13 Dec 3.1 14:47:07 10° W 14:50:20 22° NNW 14:52:54 13° NNE visible
13 Dec 4.0 16:27:38 10° NNW 16:28:23 12° NNW 16:28:23 12° NNW visible
14 Dec 3.2 14:39:22 10° WNW 14:42:28 21° NNW 14:45:10 12° NNE visible
14 Dec 3.9 16:19:51 10° NNW 16:20:39 12° NNW 16:20:39 12° NNW visible
15 Dec 3.2 14:31:36 10° WNW 14:34:36 20° NNW 14:37:26 11° NNE visible
15 Dec 3.9 16:12:02 10° NNW 16:12:55 12° NNW 16:12:55 12° NNW visible
16 Dec 3.3 14:23:51 10° WNW 14:26:43 19° NNW 14:29:35 10° NNE visible
16 Dec 3.8 16:04:12 10° NNW 16:05:09 12° NNW 16:05:09 12° NNW visible
17 Dec 3.3 14:16:04 10° WNW 14:18:50 18° NNW 14:21:36 10° NNE visible
17 Dec 3.7 15:56:20 10° NNW 15:57:22 12° N 15:57:22 12° N visible
